Tracking 30995 objects as of 7-Jul-2025
HD Live streaming from Space Station
objects crossing your sky now

DELTA 1 DEB

Track DELTA 1 DEB now!
10-day predictions


NORAD ID: 7015
Int'l Code: 1973-086F
Perigee: 1,513.5 km
Apogee: 2,171.9 km
Inclination: 101.8 °
Period: 123.5 minutes
Semi major axis: 8213 km
RCS: 0.3794 m2 (medium)
Launch date: November 6, 1973
Source: United States (US)
Launch site: AIR FORCE WESTERN TEST RANGE (AFWTR)

Note: This is SATELLITE DEBRIS
Your satellite tracking list
Your tracking list is empty




NASA's NSSDC Master Catalog

Two Line Element Set (TLE):
1 07015U 73086F   25187.50943573 -.00000014  00000-0  32683-3 0  9997
2 07015 101.7501  28.3547 0400763 217.2310 169.1094 11.66257332199516
Source of the keplerian elements: AFSPC